Weather History for HELX - May, 2014

Change the Weather History Date:

Sunday, May 18, 2014

  Actual Average Record
Temperature  
Mean Temperature 88 °F -  
Max Temperature 103 °F 101 °F 107 °F (1997)
Min Temperature 73 °F 72 °F 64 °F (1999)
Cooling Degree Days 23    
Growing Degree Days 38 (Base 50)    
Moisture  
Dew Point 47 °F    
Average Humidity 21    
Maximum Humidity 44    
Minimum Humidity 7    
Precipitation  
Precipitation 0.00 in 0.00 in - ()
Sea Level Pressure  
Sea Level Pressure 29.86 in    
Wind  
Wind Speed 4 mph ()    
Max Wind Speed 13 mph    
Max Gust Speed -    
Visibility 6.0 miles    
Events      
Averages and records for this station are not official NWS values.
T = Trace of Precipitation, MM = Missing Value Source: Averaged Metar Reports

Daily Weather History Graph

Daily Weather History Graph

Search for Another Location

Airport or City:

Trip Planner

Search our weather history database for the weather conditions in past years. The results will help you decide how hot, cold, wet, or windy it might be!

Date:

Astronomy

May. 18, 2014 Rise Set
Actual Time 6:02 AM EEST 7:29 PM EEST
Civil Twilight 5:37 AM EEST 7:54 PM EEST
Nautical Twilight 5:07 AM EEST 8:24 PM EEST
Astronomical Twilight 4:36 AM EEST 8:55 PM EEST
Moon 11:07 PM EEST (5/18) 9:25 AM EEST (5/18)
Length of Visible Light 14h 16m
Length of Day
13h 26m
Waning Gibbous, 84% of the Moon is Illuminated
May 18
Waning Gibbous
May 21
Last Quarter
May 28
New
Jun 5
First Quarter
Jun 13
Full

Hourly Weather History & Observations

Time (EEST) Temp. Heat Index Dew Point Humidity Pressure Visibility Wind Dir Wind Speed Gust Speed Precip Events Conditions
12:00 AM 89 °F - 50 °F 17% 29.84 in 6 mi SSE 2.3 mph - -  
12:00 AM 89.6 °F - 50.0 °F 26% 29.83 in - SSE 2.3 mph - N/A   Clear
1:00 AM 86.0 °F - 50.0 °F 29% 29.86 in - SSE 3.5 mph - N/A   Clear
2:00 AM 84.2 °F - 51.8 °F 33% 29.83 in - South 3.5 mph - N/A   Clear
3:00 AM 85 °F - 50 °F 20% 29.85 in 6 mi South 2.3 mph - -  
3:00 AM 86.0 °F - 50.0 °F 29% 29.86 in - South 2.3 mph - N/A   Clear
4:00 AM 80.6 °F - 46.4 °F 30% 29.86 in - SSE 3.5 mph - N/A   Clear
5:00 AM 82.4 °F - 48.2 °F 30% 29.86 in - ENE 3.5 mph - N/A   Clear
6:00 AM 77 °F - 45 °F 21% 29.88 in 6 mi Calm Calm - -  
6:00 AM 77.0 °F - 44.6 °F 32% 29.89 in - Calm Calm - N/A   Clear
7:00 AM 75.2 °F - 51.8 °F 44% 29.89 in - WSW 3.5 mph - N/A   Clear
8:00 AM 82.4 °F 81.4 °F 53.6 °F 37% 29.92 in - SSW 2.3 mph - N/A   Clear
9:00 AM 89 °F - 53 °F 19% 29.91 in 6 mi NNW 4.6 mph - -  
9:00 AM 87.8 °F 85.7 °F 53.6 °F 31% 29.92 in - NNW 4.6 mph - N/A   Clear
10:00 AM 93.2 °F - 50.0 °F 23% 29.92 in - NNW 5.8 mph - N/A   Clear
11:00 AM 95.0 °F - 50.0 °F 22% 29.92 in - NNW 8.1 mph - N/A   Clear
12:00 PM 98 °F - 50 °F 12% 29.88 in 6 mi NNW 12.7 mph - -  
12:00 PM 98.6 °F - 50.0 °F 19% 29.89 in - NNW 12.7 mph - N/A   Clear
1:00 PM 100.4 °F - 50.0 °F 18% 29.89 in - NNW 8.1 mph - N/A   Clear
2:00 PM 102.2 °F - 51.8 °F 18% 29.86 in - NNW 9.2 mph - N/A   Clear
3:00 PM 103 °F - 49 °F 9% 29.82 in 6 mi NW 9.2 mph - -  
3:00 PM 102.2 °F - 50.0 °F 17% 29.83 in - NW 9.2 mph - N/A   Clear
4:00 PM 102.2 °F - 48.2 °F 16% 29.83 in - NW 11.5 mph - N/A   Clear
5:00 PM 102.2 °F - 42.8 °F 13% 29.83 in - NW 10.4 mph - N/A   Clear
6:00 PM 99 °F - 42 °F 7% 29.80 in 6 mi NW 8.1 mph - -  
6:00 PM 98.6 °F - 41.0 °F 14% 29.80 in - NW 8.1 mph - N/A   Clear
7:00 PM 96.8 °F - 39.2 °F 14% 29.80 in - NW 8.1 mph - N/A   Clear
8:00 PM 91.4 °F - 41.0 °F 17% 29.83 in - WNW 4.6 mph - N/A   Clear
9:00 PM 89 °F - 38 °F 9% 29.84 in 6 mi WNW 2.3 mph - -  
9:00 PM 87.8 °F - 37.4 °F 17% 29.83 in - WNW 2.3 mph - N/A   Clear
10:00 PM 86.0 °F - 39.2 °F 19% 29.86 in - Calm Calm - N/A   Clear
11:00 PM 84.2 °F - 41.0 °F 22% 29.86 in - SSE 2.3 mph - N/A   Clear